Weather History for Martha's Vineyard, MA

Change the Weather History Date:

Thursday, October 10, 2013

  Actual Average Record
Temperature  
Mean Temperature 60 °F -  
Max Temperature 66 °F 64 °F 82 °F (2011)
Min Temperature 55 °F 47 °F 33 °F (2000)
Degree Days  
Heating Degree Days 4    
Growing Degree Days 10 (Base 50)    
Moisture  
Dew Point 54 °F    
Average Humidity 78    
Maximum Humidity 90    
Minimum Humidity 68    
Precipitation  
Precipitation 0.00 in - - ()
Sea Level Pressure  
Sea Level Pressure 30.22 in    
Wind  
Wind Speed 13 mph (ENE)    
Max Wind Speed 20 mph    
Max Gust Speed 23 mph    
Visibility 10 miles    
Events      
Averages and records for this station are not official NWS values.
T = Trace of Precipitation, MM = Missing Value Source: NWS Daily Summary

Daily Weather History Graph

Daily Weather History Graph

Search for Another Location

Airport:

Trip Planner

Search our weather history database for the weather conditions in past years. The results will help you decide how hot, cold, wet, or windy it might be!

Date:

Astronomy

Oct. 10, 2013 Rise Set
Actual Time 6:49 AM EDT 6:09 PM EDT
Civil Twilight 6:21 AM EDT 6:36 PM EDT
Nautical Twilight 5:49 AM EDT 7:08 PM EDT
Astronomical Twilight 5:17 AM EDT 7:40 PM EDT
Moon 12:40 PM EDT (10/10) 10:41 PM EDT (10/10)
Length of Visible Light 12h 15m
Length of Day
11h 20m
Waxing Crescent, 35% of the Moon is Illuminated
Oct 10
Waxing Crescent
Oct 11
First Quarter
Oct 18
Full
Oct 26
Last Quarter
Nov 3
New

Hourly Weather History & Observations

Time (EDT) Temp. Dew Point Humidity Pressure Visibility Wind Dir Wind Speed Gust Speed Precip Events Conditions
12:53 AM 55.9 °F 48.9 °F 77% 30.31 in 10.0 mi ENE 11.5 mph - N/A   Clear
1:53 AM 57.0 °F 50.0 °F 77% 30.31 in 10.0 mi ENE 11.5 mph - N/A   Clear
2:53 AM 57.0 °F 50.0 °F 77% 30.29 in 10.0 mi ENE 11.5 mph - N/A   Clear
3:53 AM 57.0 °F 50.0 °F 77% 30.28 in 10.0 mi ENE 10.4 mph 19.6 mph N/A   Clear
4:53 AM 57.9 °F 50.0 °F 75% 30.29 in 10.0 mi ENE 11.5 mph - N/A   Clear
5:53 AM 57.9 °F 51.1 °F 78% 30.28 in 10.0 mi ENE 15.0 mph - N/A   Clear
6:53 AM 57.9 °F 51.1 °F 78% 30.27 in 10.0 mi ENE 13.8 mph - N/A   Partly Cloudy
7:53 AM 59.0 °F 52.0 °F 78% 30.27 in 10.0 mi ENE 13.8 mph - N/A   Clear
8:53 AM 61.0 °F 54.0 °F 78% 30.27 in 10.0 mi East 16.1 mph 21.9 mph N/A   Mostly Cloudy
9:30 AM 60.8 °F 53.6 °F 77% 30.27 in 10.0 mi ENE 15.0 mph - N/A   Overcast
9:53 AM 62.1 °F 54.0 °F 75% 30.28 in 10.0 mi East 12.7 mph - N/A   Overcast
10:53 AM 64.0 °F 55.0 °F 73% 30.26 in 10.0 mi ENE 16.1 mph 23.0 mph N/A   Mostly Cloudy
11:36 AM 64.4 °F 55.4 °F 73% 30.25 in 10.0 mi NE 17.3 mph - N/A   Mostly Cloudy
11:44 AM 64.4 °F 55.4 °F 73% 30.25 in 10.0 mi NE 16.1 mph - N/A   Mostly Cloudy
11:53 AM 66.0 °F 55.0 °F 68% 30.25 in 10.0 mi ENE 16.1 mph - N/A   Mostly Cloudy
12:20 PM 66.2 °F 55.4 °F 68% 30.23 in 10.0 mi ENE 17.3 mph - N/A   Mostly Cloudy
12:53 PM 66.0 °F 55.9 °F 70% 30.23 in 10.0 mi ENE 19.6 mph - N/A   Mostly Cloudy
1:23 PM 64.4 °F 55.4 °F 73% 30.23 in 10.0 mi ENE 11.5 mph - N/A   Scattered Clouds
1:31 PM 64.4 °F 55.4 °F 73% 30.22 in 10.0 mi ENE 17.3 mph - N/A   Mostly Cloudy
1:41 PM 62.6 °F 55.4 °F 77% 30.22 in 10.0 mi ENE 16.1 mph - N/A   Scattered Clouds
1:53 PM 63.0 °F 55.9 °F 78% 30.22 in 10.0 mi ENE 13.8 mph - N/A   Scattered Clouds
2:53 PM 63.0 °F 55.9 °F 78% 30.20 in 10.0 mi ENE 12.7 mph - N/A   Scattered Clouds
3:53 PM 63.0 °F 55.9 °F 78% 30.19 in 10.0 mi ENE 13.8 mph - N/A   Scattered Clouds
4:53 PM 63.0 °F 55.9 °F 78% 30.18 in 10.0 mi NE 13.8 mph 19.6 mph N/A   Scattered Clouds
5:53 PM 62.1 °F 55.9 °F 80% 30.16 in 10.0 mi NE 13.8 mph - N/A   Scattered Clouds
6:14 PM 60.8 °F 55.4 °F 82% 30.17 in 10.0 mi NE 12.7 mph - N/A   Mostly Cloudy
6:53 PM 61.0 °F 55.9 °F 83% 30.17 in 10.0 mi NE 10.4 mph - N/A   Mostly Cloudy
7:53 PM 61.0 °F 55.9 °F 83% 30.16 in 10.0 mi NE 11.5 mph - N/A   Mostly Cloudy
8:53 PM 60.1 °F 57.0 °F 90% 30.15 in 10.0 mi NE 13.8 mph - N/A   Mostly Cloudy
9:53 PM 61.0 °F 57.0 °F 87% 30.15 in 10.0 mi NE 12.7 mph - N/A   Mostly Cloudy
10:06 PM 60.8 °F 57.2 °F 88% 30.15 in 10.0 mi NE 13.8 mph - N/A   Overcast
10:53 PM 61.0 °F 57.0 °F 87% 30.14 in 10.0 mi NE 12.7 mph - N/A   Overcast
11:53 PM 61.0 °F 57.0 °F 87% 30.12 in 10.0 mi NE 12.7 mph - N/A   Overcast